Location: Chillicothe
(39.7950°N, 93.5520°W)
Time: 23:23:01
(UTC-06:00)

BEESAT - Pass Details

Date: 19 November 2019
Orbit: 700 x 709 km, 98.6° (Epoch: 11 December)

Event Time Altitude Azimuth Distance (km) Brightness Sun altitude
Rises 05:56:28 0° 203° (SSW) 3,076 ? -12.9°
Reaches altitude 10° 05:59:19 10° 221° (SW) 2,162 ? -12.4°
Maximum altitude 06:02:39 19° 266° (W) 1,646 ? -11.7°
Enters shadow 06:04:37 15° 296° (WNW) 1,846 ? -11.4°
